Voltar ao catálogo

STARLINK-35063

AtivoComunicaçõesSSO
NORAD 65528·PAYLOAD·🇺🇸 United States

Lançado Sep 6, 2025 de Cape Canaveral Space Force Station

Loading…

Próximas Passagens (próximas 24 horas)

TLE

AtualizadoSource: CelesTrak SupGP

Época: Sep 14, 2026, 22:40 UTC

1 65528C 25200J   26257.94493056  .00016064  00000+0  49856-3 0  2575
2 65528  97.2843 324.4212 0001392  92.2959 147.3606 15.33438134    13

Acompanhe STARLINK-35063 em tempo real com AllMySat

Download on the App Store